When you browse on this site, cookies collect data to enhance your experience and personalize the content and advertising you see.
Visit our Privacy Policy to learn more. By continuing to use the site, you agree to this use of cookies and data.
  • en France
  • Liste des pays
  • À 7 jours
  • Température de l'eau
  • Carte météo
  • Widgets météo
  • user-avatar
    Se connecter

    Météo par heure à Sarafovo

    Ce jour, 19 Septembre, Jeudi

    Heure Température Précipitation Vent Pression Humidité
    00:00 +20°C° 0.1 mm 4 m/s 761 mmHg 75%
    01:00 +20°C° 0.1 mm 4 m/s 761 mmHg 76%
    02:00 +20°C° 0 mm 4 m/s 761 mmHg 78%
    03:00 +19°C° 0.1 mm 4 m/s 761 mmHg 75%
    04:00 +19°C° 0.1 mm 4 m/s 761 mmHg 73%
    05:00 +18°C° 0.1 mm 4 m/s 761 mmHg 71%
    06:00 +19°C° 0.1 mm 4 m/s 761 mmHg 70%
    07:00 +19°C° 0.1 mm 3 m/s 761 mmHg 69%
    08:00 +19°C° 0 mm 3 m/s 762 mmHg 72%
    09:00 +20°C° 0 mm 3 m/s 762 mmHg 68%
    10:00 +21°C° 0 mm 4 m/s 762 mmHg 64%
    11:00 +22°C° 0 mm 4 m/s 762 mmHg 59%
    12:00 +22°C° 0 mm 4 m/s 762 mmHg 58%
    13:00 +22°C° 0 mm 4 m/s 761 mmHg 58%
    14:00 +22°C° 0 mm 4 m/s 761 mmHg 63%
    15:00 +21°C° 0.3 mm 4 m/s 761 mmHg 68%
    16:00 +20°C° 0.3 mm 4 m/s 761 mmHg 72%
    17:00 +19°C° 0.3 mm 3 m/s 761 mmHg 77%
    18:00 +18°C° 0.3 mm 4 m/s 761 mmHg 76%
    19:00 +17°C° 0.3 mm 4 m/s 761 mmHg 76%
    20:00 +15°C° 0.3 mm 4 m/s 761 mmHg 76%
    21:00 +15°C° 0.2 mm 4 m/s 761 mmHg 75%
    22:00 +15°C° 0.2 mm 4 m/s 761 mmHg 74%
    23:00 +14°C° 0.2 mm 4 m/s 761 mmHg 74%

    Demain, 20 Septembre, Vendredi

    Heure Température Précipitation Vent Pression Humidité
    00:00 +14°C° 0.3 mm 4 m/s 761 mmHg 76%
    01:00 +14°C° 0.3 mm 5 m/s 761 mmHg 78%
    02:00 +13°C° 0.3 mm 5 m/s 761 mmHg 81%
    03:00 +13°C° 1.1 mm 5 m/s 761 mmHg 83%
    04:00 +13°C° 1.1 mm 6 m/s 761 mmHg 86%
    05:00 +13°C° 1.1 mm 6 m/s 761 mmHg 88%
    06:00 +13°C° 1.6 mm 6 m/s 761 mmHg 87%
    07:00 +13°C° 1.6 mm 6 m/s 761 mmHg 85%
    08:00 +11°C° 1.6 mm 6 m/s 761 mmHg 84%
    09:00 +13°C° 0.3 mm 6 m/s 761 mmHg 79%
    10:00 +14°C° 0.3 mm 5 m/s 762 mmHg 75%
    11:00 +15°C° 0.3 mm 5 m/s 762 mmHg 70%
    12:00 +16°C° 0 mm 5 m/s 762 mmHg 63%
    13:00 +19°C° 0 mm 5 m/s 762 mmHg 57%
    14:00 +20°C° 0 mm 5 m/s 761 mmHg 50%
    15:00 +20°C° 0 mm 5 m/s 761 mmHg 45%
    16:00 +20°C° 0 mm 4 m/s 762 mmHg 41%
    17:00 +20°C° 0 mm 4 m/s 762 mmHg 36%
    18:00 +18°C° 0 mm 3 m/s 762 mmHg 39%
    19:00 +16°C° 0 mm 3 m/s 763 mmHg 42%
    20:00 +15°C° 0 mm 2 m/s 763 mmHg 45%
    21:00 +14°C° 0 mm 2 m/s 763 mmHg 45%
    22:00 +14°C° 0 mm 2 m/s 763 mmHg 45%
    23:00 +13°C° 0 mm 2 m/s 764 mmHg 45%

    Après-demain, 21 Septembre, Samedi

    Heure Température Précipitation Vent Pression Humidité
    00:00 +13°C° 0 mm 2 m/s 764 mmHg 46%
    01:00 +13°C° 0 mm 2 m/s 764 mmHg 46%
    02:00 +12°C° 0 mm 2 m/s 764 mmHg 46%
    03:00 +12°C° 0 mm 2 m/s 764 mmHg 48%
    04:00 +12°C° 0 mm 2 m/s 765 mmHg 49%
    05:00 +10°C° 0 mm 2 m/s 765 mmHg 50%
    06:00 +11°C° 0 mm 3 m/s 765 mmHg 48%
    07:00 +13°C° 0 mm 3 m/s 765 mmHg 46%
    08:00 +14°C° 0 mm 3 m/s 766 mmHg 44%
    09:00 +16°C° 0 mm 3 m/s 766 mmHg 41%
    10:00 +18°C° 0 mm 3 m/s 766 mmHg 38%
    11:00 +19°C° 0 mm 3 m/s 766 mmHg 34%
    12:00 +20°C° 0 mm 4 m/s 766 mmHg 33%
    13:00 +20°C° 0 mm 4 m/s 765 mmHg 32%
    14:00 +21°C° 0 mm 4 m/s 765 mmHg 31%
    15:00 +20°C° 0 mm 4 m/s 765 mmHg 34%
    16:00 +19°C° 0 mm 4 m/s 765 mmHg 37%
    17:00 +17°C° 0 mm 5 m/s 765 mmHg 41%
    18:00 +17°C° 0 mm 4 m/s 765 mmHg 47%
    19:00 +14°C° 0 mm 3 m/s 765 mmHg 52%
    20:00 +13°C° 0 mm 3 m/s 765 mmHg 58%
    21:00 +13°C° 0 mm 2 m/s 765 mmHg 60%
    22:00 +13°C° 0 mm 2 m/s 765 mmHg 61%
    23:00 +13°C° 0 mm 2 m/s 765 mmHg 63%

    22 Septembre, Dimanche

    Heure Température Précipitation Vent Pression Humidité
    00:00 +12°C° 0 mm 1 m/s 765 mmHg 64%
    01:00 +12°C° 0 mm 1 m/s 765 mmHg 65%
    02:00 +12°C° 0 mm 1 m/s 765 mmHg 67%
    03:00 +12°C° 0 mm 1 m/s 765 mmHg 68%
    04:00 +12°C° 0 mm 1 m/s 765 mmHg 69%
    05:00 +11°C° 0 mm 1 m/s 764 mmHg 70%
    06:00 +13°C° 0 mm 1 m/s 764 mmHg 64%
    07:00 +14°C° 0 mm 1 m/s 764 mmHg 58%
    08:00 +16°C° 0 mm 1 m/s 764 mmHg 52%
    09:00 +19°C° 0 mm 1 m/s 764 mmHg 46%
    10:00 +19°C° 0 mm 2 m/s 764 mmHg 41%
    11:00 +21°C° 0 mm 2 m/s 764 mmHg 36%
    12:00 +21°C° 0 mm 2 m/s 764 mmHg 36%
    13:00 +22°C° 0 mm 3 m/s 763 mmHg 35%
    14:00 +22°C° 0 mm 4 m/s 763 mmHg 35%
    15:00 +21°C° 0 mm 4 m/s 762 mmHg 39%
    16:00 +21°C° 0 mm 4 m/s 762 mmHg 43%
    17:00 +20°C° 0 mm 4 m/s 762 mmHg 48%
    18:00 +18°C° 0 mm 4 m/s 762 mmHg 56%
    19:00 +16°C° 0 mm 3 m/s 762 mmHg 63%
    20:00 +14°C° 0 mm 3 m/s 762 mmHg 71%
    21:00 +14°C° 0 mm 2 m/s 762 mmHg 73%
    22:00 +14°C° 0 mm 2 m/s 762 mmHg 76%
    23:00 +14°C° 0 mm 2 m/s 762 mmHg 78%

    23 Septembre, Lundi

    Heure Température Précipitation Vent Pression Humidité
    00:00 +13°C° 0 mm 1 m/s 762 mmHg 79%
    01:00 +13°C° 0 mm 1 m/s 761 mmHg 80%
    02:00 +13°C° 0 mm 1 m/s 761 mmHg 82%
    03:00 +13°C° 0 mm 1 m/s 761 mmHg 82%
    04:00 +13°C° 0 mm 1 m/s 761 mmHg 82%
    05:00 +12°C° 0 mm 1 m/s 761 mmHg 82%
    06:00 +14°C° 0 mm 1 m/s 761 mmHg 75%
    07:00 +15°C° 0 mm 1 m/s 761 mmHg 68%
    08:00 +18°C° 0 mm 1 m/s 760 mmHg 61%
    09:00 +19°C° 0 mm 2 m/s 760 mmHg 54%
    10:00 +21°C° 0 mm 2 m/s 760 mmHg 47%
    11:00 +24°C° 0 mm 2 m/s 760 mmHg 41%
    12:00 +25°C° 0 mm 3 m/s 759 mmHg 41%
    13:00 +25°C° 0 mm 4 m/s 759 mmHg 41%
    14:00 +26°C° 0 mm 5 m/s 758 mmHg 41%
    15:00 +25°C° 0 mm 5 m/s 758 mmHg 47%
    16:00 +23°C° 0 mm 5 m/s 757 mmHg 52%
    17:00 +21°C° 0 mm 6 m/s 757 mmHg 58%
    18:00 +20°C° 0 mm 5 m/s 757 mmHg 64%
    19:00 +19°C° 0 mm 4 m/s 757 mmHg 70%
    20:00 +17°C° 0 mm 4 m/s 758 mmHg 76%
    21:00 +17°C° 0 mm 3 m/s 757 mmHg 77%
    22:00 +17°C° 0 mm 3 m/s 757 mmHg 78%
    23:00 +17°C° 0 mm 3 m/s 757 mmHg 80%

    24 Septembre, Mardi

    Heure Température Précipitation Vent Pression Humidité
    00:00 +17°C° 0 mm 2 m/s 757 mmHg 77%
    01:00 +17°C° 0 mm 2 m/s 757 mmHg 75%
    02:00 +18°C° 0 mm 2 m/s 756 mmHg 73%
    03:00 +17°C° 0 mm 2 m/s 756 mmHg 75%
    04:00 +18°C° 0 mm 1 m/s 756 mmHg 76%
    05:00 +16°C° 0 mm 1 m/s 755 mmHg 78%
    06:00 +18°C° 0 mm 1 m/s 755 mmHg 71%
    07:00 +20°C° 0 mm 1 m/s 755 mmHg 65%
    08:00 +21°C° 0 mm 1 m/s 754 mmHg 59%
    09:00 +23°C° 0 mm 2 m/s 754 mmHg 52%
    10:00 +25°C° 0 mm 2 m/s 754 mmHg 46%
    11:00 +27°C° 0 mm 3 m/s 754 mmHg 39%
    12:00 +28°C° 0 mm 3 m/s 753 mmHg 38%
    13:00 +29°C° 0 mm 4 m/s 753 mmHg 38%
    14:00 +30°C° 0 mm 4 m/s 752 mmHg 37%
    15:00 +29°C° 0 mm 5 m/s 752 mmHg 41%
    16:00 +28°C° 0 mm 5 m/s 752 mmHg 46%
    17:00 +27°C° 0 mm 5 m/s 751 mmHg 50%
    18:00 +26°C° 0.1 mm 5 m/s 752 mmHg 54%
    19:00 +25°C° 0.1 mm 5 m/s 752 mmHg 58%
    20:00 +23°C° 0.1 mm 4 m/s 752 mmHg 62%
    21:00 +22°C° 0.3 mm 5 m/s 752 mmHg 68%
    22:00 +20°C° 0.3 mm 5 m/s 752 mmHg 73%
    23:00 +19°C° 0.3 mm 5 m/s 753 mmHg 79%
    Voir plus